Flag for Trinidad and Tobago Weather past 2 weeks in Chaguanas, Trinidad and Tobago

Now
75 °F

Passing clouds.


Feels Like: 75 °F
Forecast: 73 / 89 °F
Wind: No wind

Location: Piarco International Airport - Trinidad

Current Time: Jan 26, 2015 at 4:47:26 AM

Latest Report: Jan 26, 2015 at 4:00 AM


Visibility: N/A

Pressure: 29.89 "Hg

Humidity: 89%

Dew point: 72 °F

Location of ChaguanasLocation

Historic Weather in Chaguanas — Graph

°F

Chaguanas temperature yesterday

Maximum temperature yesterday: 88 °F (at 2:00 PM)
Minimum temperature yesterday: 72 °F (at 4:00 AM)
Average temperature yesterday: 79 °F

Past Weeks' High & Low Weather Summary

 TemperatureHumidityPressure
High90 °F (Jan 18, 1:00 PM)100% (Jan 24, 5:00 AM)30.04 "Hg (Jan 24, 5:00 AM)
Low70 °F (Jan 24, 5:00 AM)52% (Jan 18, 1:00 PM)29.86 "Hg (Jan 14, 2:00 PM)
Average79 °F81%29.93 "Hg
* Reported Jan 11 3:00 AM — Jan 26 3:00 AM, Chaguanas, Weather by CustomWeather, © 2014

Note: Actual official high and low records may vary slightly from our data, if they occured in-between our weather recording intervals... More about our weather records

Advertising

Chaguanas weather history for previous 24 hours

 ConditionsComfort  
Time TempWeatherWind HumidityBarometerVisibility
3:00 AM
Jan 26
73 °FPassing clouds.No wind94%29.89 "HgN/A
2:00 AM73 °FPassing clouds.No wind94%29.89 "HgN/A
1:00 AM73 °FPassing clouds.No wind94%29.92 "HgN/A
12:00 AM73 °FPassing clouds.No wind94%29.92 "HgN/A
11:00 PM
Jan 25
75 °FPassing clouds.No wind89%29.92 "HgN/A
10:00 PM75 °FPassing clouds.No wind89%29.92 "HgN/A
9:00 PM75 °FPassing clouds.No wind89%29.92 "HgN/A
8:00 PM77 °FPassing clouds.No wind83%29.92 "HgN/A
7:00 PM79 °FPassing clouds.No wind79%29.89 "HgN/A
5:00 PM84 °FPassing clouds.12 mph62%29.89 "HgN/A
4:00 PM86 °FPassing clouds.12 mph59%29.89 "HgN/A
3:00 PM84 °FPassing clouds.13 mph58%29.89 "HgN/A
2:00 PM88 °FScattered clouds.10 mph55%29.92 "HgN/A
1:00 PM86 °FScattered clouds.12 mph59%29.92 "HgN/A
12:00 PM86 °FScattered showers. Partly sunny.16 mph59%29.95 "HgN/A
11:00 AM84 °FScattered clouds.15 mph66%29.98 "HgN/A
10:00 AM86 °FPassing clouds.14 mph59%29.98 "HgN/A
9:00 AM84 °FPassing clouds.12 mph66%29.98 "HgN/A
8:00 AM81 °FPassing clouds.No wind74%29.95 "HgN/A
7:00 AM72 °FPassing clouds.No wind94%29.95 "HgN/A
6:00 AM72 °FPassing clouds.No wind94%29.92 "HgN/A
5:00 AM73 °FPassing clouds.No wind89%29.92 "HgN/A
4:00 AM72 °FPassing clouds.No wind94%29.89 "HgN/A
Weather by CustomWeather, © 2014

See weather overviewHow to use our weather pages